Grizzly Air Cargo 5383


PAGA
Edward G Pitka Sr. Airport
Galena, Alaska, US
PAFA
Fairbanks International Airport
Fairbanks, Alaska, US

Activity Log

Date Flight Route Aircraft Duration
No Flights Yet

Route Details

Aircraft Information
Primary: Saab 340AF
Backup: Not Available
Route Data
Distance: 234nm
Sched. Duration: 1h 50m
Avg. Duration: 0h 00m (-150m)
Times Flown: 0
Recm'd Route: GAL J122 FAI
Planned Altitude: 25,000ft
Origin Wx: PAGA 251256Z AUTO 09006KT 10SM BKN026 BKN031 OVC048 M01/M01 A3001 RMK AO2 UPB35E53 SLP166 P0000 T10061011 FZRANO
Dest. Wx: PAFA 251253Z 00000KT 10SM BKN060 BKN080 M06/M08 A3013 RMK AO2 SLP212 T10561078
Notes:

Financial History
Total Freight: 0lbs
Average Load: 0lbs/flt
Fuel Used: 0lbs
Avg. Fuel Used: 0lbs/flt
Fuel Expense: $0
Avg. Fuel Expense: $0
Avg. Fuel Cost: $0/lbs
Total Gross Income: $0
Pilot Pay: $0
Total Expenses: $0
Total Revenue: $0
Average Revenue: $0